This demonstration page uses our WeatherBlox Daily Observations layout. Learn more.

Left ArrowRight Arrow

Hourly Observations for June 2, 2017

Temp ( °F °C ) Dew Point ( °F °C ) Humidity (%) Winds ( mph kmh ) Pressure ( in mb ) Visibility ( mi km ) Precip ( " mm )
12:56 am 00:56 Clear 65 18.1 60 15.3 84 84 E 6 9 29.97 1015 10 16 0.00 0.00
1:56 am 01:56 Partly Cloudy 66 19 62 16.4 85 85 ESE 5 7 29.97 1015 10 16 0.00 0.00
2:53 am 02:53 Mostly Cloudy with Light Rain 68 20 61 16 78 78 ESE 6 9 29.97 1015 10 16 0.00 0.00
2:56 am 02:56 Partly Cloudy with Light Rain 67 19.7 62 16.5 82 82 ESE 7 11 29.97 1015 10 16 0.00 0.03
3:19 am 03:19 Partly Cloudy with Light Rain 66 19 63 17 88 88 S 21 33 29.99 1016 9 14 0.00 0.00
3:25 am 03:25 Mostly Cloudy with Thunderstorms 68 20 64 18 88 88 S 18 30 29.99 1016 3 5 0.00 0.00
3:31 am 03:31 Mostly Cloudy with Strong Thunderstorms 68 20 64 18 88 88 SSW 9 15 29.99 1016 2 3 0.00 0.00
3:34 am 03:34 Mostly Cloudy with Strong Thunderstorms 68 20 64 18 88 88 SSW 10 17 29.99 1016 3 4 0.00 0.00
3:37 am 03:37 Mostly Cloudy with Strong Thunderstorms 66 19 64 18 94 94 SSW 9 15 29.99 1016 4 6 0.00 0.00
3:42 am 03:42 Mostly Cloudy with Strong Thunderstorms 66 19 64 18 94 94 SSW 9 15 29.99 1016 5 8 0.00 0.00
3:56 am 03:56 Partly Cloudy with Thunderstorms 68 19.8 64 17.7 88 88 SSW 7 11 29.97 1015 7 11 0.13 3.30
4:49 am 04:49 Clear with Light Rain and Nearby Thunderstorms 66 19 64 18 94 94 E 8 13 29.99 1016 10 16 0.00 0.00
4:56 am 04:56 Clear 66 19 64 17.7 92 92 E 7 11 29.99 1016 10 16 0.04 1.02
5:56 am 05:56 Mostly Sunny 68 20 65 18.3 90 90 SE 8 13 29.99 1016 10 16 0.00 0.03
6:56 am 06:56 Sunny 69 20.4 66 18.9 91 91 SE 7 11 29.97 1015 10 16 0.00 0.00
7:56 am 07:56 Sunny 71 21.6 66 18.8 84 84 SE 7 11 30.00 1016 10 16 0.00 0.00
8:56 am 08:56 Mostly Sunny 73 22.7 66 18.8 79 79 SE 10 17 30.01 1016 10 16 0.00 0.00
9:56 am 09:56 Sunny 75 23.7 64 17.7 69 69 S 8 13 30.00 1016 10 16 0.00 0.00
10:56 am 10:56 Sunny 77 24.8 67 19.2 71 71 SE 9 15 30.00 1016 10 16 0.00 0.00
11:56 am 11:56 Sunny 78 25.5 67 19.4 69 69 SE 9 15 30.00 1016 10 16 0.00 0.00
12:56 pm 12:56 Sunny 81 27.4 67 19.4 62 62 SE 10 17 29.99 1016 10 16 0.00 0.00
1:56 pm 13:56 Sunny 83 28.6 65 18.3 54 54 SSE 12 19 29.98 1015 10 16 0.00 0.00
2:56 pm 14:56 Sunny 86 29.9 63 17 46 46 SSE 15 24 29.96 1015 10 16 0.00 0.00
3:56 pm 15:56 Sunny 87 30.7 58 14.7 38 38 SSE 13 20 29.94 1014 10 16 0.00 0.00
4:56 pm 16:56 Sunny 88 31 57 14.1 36 36 S 10 17 29.93 1013 10 16 0.00 0.00
5:56 pm 17:56 Sunny 87 30.6 55 12.9 34 34 S 12 19 29.91 1013 10 16 0.00 0.00
7:56 pm 19:56 Sunny 83 28.2 60 15.5 46 46 S 8 13 29.90 1012 10 16 0.00 0.00
8:56 pm 20:56 Clear 80 26.5 59 14.9 49 49 S 6 9 29.91 1013 10 16 0.00 0.00
9:56 pm 21:56 Clear 77 25 59 15 54 54 S 3 6 29.93 1014 10 16 0.00 0.00
10:56 pm 22:56 Clear 76 24.3 60 15.5 58 58 S 6 9 29.96 1015 10 16 0.00 0.00
11:56 pm 23:56 Clear 71 21.4 61 16.3 73 73 SSE 3 6 29.97 1015 10 16 0.00 0.00

Powered by AerisWeather